Location: Unspecified
(43.4680°N, 87.1740°E)
Time: 20:51:44
(UTC+00:00)

NOSS 0 Rocket - Pass Details

Date: 03 August 2021
Orbit: 936 x 954 km, 70.0° (Epoch: 22 September)

Event Time Altitude Azimuth Distance (km) Brightness Sun altitude
Rises 17:29:48 0° 329° (NNW) 3,634 8.1 -28.3°
Reaches altitude 10° 17:32:24 10° 324° (NW) 2,683 7.1 -28.4°
Enters shadow 17:38:23 51° 251° (WSW) 1,182 4.3 -28.6°
